Weather in Krasnokutsk

Ukraine / Kharkiv Region     50˚03′49″N   35˚09′59″E
temp.,
°C
wind,
m/s
gust,
m/s
humid.,
%
clouds,
%
prec.,
mm/h
press.,
hPa
HPBL,
m
30 november, mon
mon3023:00+5˚se51087100 0.0 1023374
02:00+5˚se51091100 0.1 1023425
05:00+5˚sse51090100 0.0 1024477
08:00+5˚se5990100 0.1 1024408
11:00+5˚se5986100 0.0 1025510
14:00+6˚se5882100 0.1 1025683
17:00+5˚se5877100 0.0 1025720
20:00+4˚se4878100 0.0 1025645
1 december, tue
tue123:00+5˚ese3878100 0.0 1025559
02:00+5˚ese4878100 0.0 1025501
05:00+4˚ese61076100 0.0 1025479
08:00+2˚ese6972100 0.0 1027457
11:00+2˚ese5873100 0.0 1027526
14:00+2˚ese5874100 0.0 1027632
17:00+1˚e5975100 0.0 1027661
20:00e5107499 0.0 1029595
2 december, wed
wed223:00−1˚ese5976100 0.0 1029637
02:00−1˚e6878100 0.0 1029444
05:00−1˚e61076100 0.0 1029536
08:00−2˚ese61082100 0.1 1029584
11:00ese6107697 0.0 1029583
14:00ese687799 0.0 1029744
17:00−1˚e61081100 0.0 1028536
20:00−1˚ese61080100 0.0 1029530
3 december, thu
thu323:00−1˚ese6987100 0.1 1029521
02:00−1˚ese61094100 0.9 1029507
05:00−2˚ese5895100 1.3 1028441
08:00−2˚ese6994100 2.1 1029378
11:00ese589080 0.1 1029381
14:00ese589090 0.1 1028331
17:00−1˚ese5891100 0.0 1029323
20:00ese5893100 0.0 1029333
4 december, fri
fri423:00ese5893100 0.0 1029365
02:00−1˚ese5794100 0.1 1029277
05:00−1˚ese589399 0.0 1029332
08:00−1˚ese599399 0.1 1029365
11:00−1˚ese6990100 0.1 1029424
14:00ese5889100 0.1 1028443
17:00−1˚ese61190100 0.0 1029483
20:00−1˚ese61188100 0.0 1029578